Time,TemperatureF,DewpointF,PressureIn,WindDirection,WindDirectionDegrees,WindSpeedMPH,WindSpeedGustMPH,Humidity,HourlyPrecipIn,Conditions,Clouds,dailyrainin,SoftwareType,DateUTC
2013-08-06 00:01:00,70.0,68.2,29.85,WSW,237,0.0,5.0,94,0.00,,,0.00,Wunderground v.1.15,2013-08-06 05:01:00,
2013-08-06 00:07:00,69.9,68.4,29.85,WSW,237,0.0,5.0,95,0.00,,,0.00,Wunderground v.1.15,2013-08-06 05:07:00,
2013-08-06 00:13:00,69.8,68.3,29.85,WSW,237,1.0,3.0,95,0.00,,,0.00,Wunderground v.1.15,2013-08-06 05:13:00,
2013-08-06 00:18:00,69.8,68.3,29.86,WSW,237,1.0,3.0,95,0.00,,,0.00,Wunderground v.1.15,2013-08-06 05:18:00,
2013-08-06 00:24:00,69.7,68.2,29.86,WSW,237,1.0,2.0,95,0.00,,,0.00,Wunderground v.1.15,2013-08-06 05:24:00,
2013-08-06 00:29:00,69.7,68.2,29.86,WSW,237,1.0,4.0,95,0.00,,,0.00,Wunderground v.1.15,2013-08-06 05:29:00,
2013-08-06 00:35:00,69.6,68.1,29.86,SW,236,1.0,6.0,95,0.00,,,0.00,Wunderground v.1.15,2013-08-06 05:35:00,
2013-08-06 00:40:00,69.6,68.1,29.86,SW,236,1.0,6.0,95,0.00,,,0.00,Wunderground v.1.15,2013-08-06 05:40:00,
2013-08-06 00:46:00,69.6,68.1,29.86,SW,236,0.0,6.0,95,0.00,,,0.00,Wunderground v.1.15,2013-08-06 05:46:00,
2013-08-06 00:51:00,69.5,68.0,29.86,SW,236,0.0,6.0,95,0.00,,,0.00,Wunderground v.1.15,2013-08-06 05:51:00,
2013-08-06 00:57:00,69.3,67.8,29.86,SW,236,1.0,6.0,95,0.00,,,0.00,Wunderground v.1.15,2013-08-06 05:57:00,
2013-08-06 01:02:00,69.3,67.8,29.86,SW,236,0.0,6.0,95,0.00,,,0.00,Wunderground v.1.15,2013-08-06 06:02:00,
2013-08-06 01:08:00,69.3,67.8,29.85,SW,236,0.0,6.0,95,0.00,,,0.00,Wunderground v.1.15,2013-08-06 06:08:00,
2013-08-06 01:13:00,69.3,67.8,29.85,SW,236,0.0,6.0,95,0.00,,,0.00,Wunderground v.1.15,2013-08-06 06:13:00,
2013-08-06 01:19:00,69.2,67.7,29.85,SW,236,0.0,6.0,95,0.00,,,0.00,Wunderground v.1.15,2013-08-06 06:19:00,
2013-08-06 01:25:00,69.1,67.9,29.85,SW,236,0.0,6.0,96,0.00,,,0.00,Wunderground v.1.15,2013-08-06 06:25:00,
2013-08-06 01:39:00,68.9,67.7,29.84,SW,236,0.0,6.0,96,0.00,,,0.00,Wunderground v.1.15,2013-08-06 06:39:00,
2013-08-06 01:45:00,68.8,67.6,29.84,SW,232,0.0,6.0,96,0.00,,,0.00,Wunderground v.1.15,2013-08-06 06:45:00,
2013-08-06 01:51:00,68.8,67.6,29.84,SW,232,0.0,6.0,96,0.00,,,0.00,Wunderground v.1.15,2013-08-06 06:51:00,
2013-08-06 01:56:00,68.7,67.5,29.84,SW,232,0.0,6.0,96,0.00,,,0.00,Wunderground v.1.15,2013-08-06 06:56:00,
2013-08-06 02:02:00,68.6,67.4,29.84,SW,232,0.0,6.0,96,0.00,,,0.00,Wunderground v.1.15,2013-08-06 07:02:00,
2013-08-06 02:07:00,68.6,67.4,29.83,SW,232,0.0,6.0,96,0.00,,,0.00,Wunderground v.1.15,2013-08-06 07:07:00,
2013-08-06 02:13:00,68.5,67.3,29.83,SW,232,0.0,6.0,96,0.00,,,0.00,Wunderground v.1.15,2013-08-06 07:13:00,
2013-08-06 02:19:00,68.5,67.3,29.83,SW,232,0.0,6.0,96,0.00,,,0.00,Wunderground v.1.15,2013-08-06 07:19:00,
2013-08-06 02:24:00,68.4,67.2,29.82,SW,232,0.0,6.0,96,0.00,,,0.00,Wunderground v.1.15,2013-08-06 07:24:00,
2013-08-06 02:29:00,68.3,67.1,29.83,SW,229,0.0,6.0,96,0.00,,,0.00,Wunderground v.1.15,2013-08-06 07:29:00,
2013-08-06 02:35:00,68.2,67.0,29.82,SW,229,0.0,6.0,96,0.00,,,0.00,Wunderground v.1.15,2013-08-06 07:35:00,
2013-08-06 02:41:00,68.2,67.0,29.82,SW,229,0.0,6.0,96,0.00,,,0.00,Wunderground v.1.15,2013-08-06 07:41:00,
2013-08-06 02:46:00,68.0,66.8,29.82,SW,229,0.0,6.0,96,0.00,,,0.00,Wunderground v.1.15,2013-08-06 07:46:00,
2013-08-06 02:51:00,68.0,66.8,29.82,SW,229,0.0,6.0,96,0.00,,,0.00,Wunderground v.1.15,2013-08-06 07:51:00,
2013-08-06 02:57:00,67.9,66.7,29.82,SW,229,0.0,6.0,96,0.00,,,0.00,Wunderground v.1.15,2013-08-06 07:57:00,
2013-08-06 03:02:00,67.8,66.6,29.81,SW,229,0.0,6.0,96,0.00,,,0.00,Wunderground v.1.15,2013-08-06 08:02:00,
2013-08-06 03:08:00,67.7,66.5,29.81,SW,229,0.0,6.0,96,0.00,,,0.00,Wunderground v.1.15,2013-08-06 08:08:00,
2013-08-06 03:14:00,67.6,66.4,29.81,SW,229,0.0,6.0,96,0.00,,,0.00,Wunderground v.1.15,2013-08-06 08:14:00,
2013-08-06 03:19:00,67.5,66.3,29.82,SW,229,0.0,6.0,96,0.00,,,0.00,Wunderground v.1.15,2013-08-06 08:19:00,
2013-08-06 03:25:00,67.4,66.2,29.81,SW,229,0.0,6.0,96,0.00,,,0.00,Wunderground v.1.15,2013-08-06 08:25:00,
2013-08-06 03:30:00,67.4,66.2,29.81,SW,229,0.0,6.0,96,0.00,,,0.00,Wunderground v.1.15,2013-08-06 08:30:00,
2013-08-06 03:36:00,67.4,66.2,29.82,SW,229,0.0,6.0,96,0.00,,,0.00,Wunderground v.1.15,2013-08-06 08:36:00,
2013-08-06 03:41:00,67.3,66.1,29.82,SW,229,0.0,6.0,96,0.00,,,0.00,Wunderground v.1.15,2013-08-06 08:41:00,
2013-08-06 03:47:00,67.3,66.1,29.82,SW,229,0.0,6.0,96,0.00,,,0.00,Wunderground v.1.15,2013-08-06 08:47:00,
2013-08-06 03:52:00,67.2,66.0,29.82,SW,229,0.0,6.0,96,0.00,,,0.00,Wunderground v.1.15,2013-08-06 08:52:00,
2013-08-06 03:58:00,67.2,66.0,29.82,SW,229,0.0,6.0,96,0.00,,,0.00,Wunderground v.1.15,2013-08-06 08:58:00,
2013-08-06 04:03:00,67.1,65.9,29.82,SW,229,0.0,6.0,96,0.00,,,0.00,Wunderground v.1.15,2013-08-06 09:03:00,
2013-08-06 04:09:00,67.1,65.9,29.82,SW,229,0.0,6.0,96,0.00,,,0.00,Wunderground v.1.15,2013-08-06 09:09:00,
2013-08-06 04:14:00,67.1,66.2,29.82,SW,229,0.0,6.0,97,0.00,,,0.00,Wunderground v.1.15,2013-08-06 09:14:00,
2013-08-06 04:20:00,67.1,66.2,29.81,SW,229,0.0,6.0,97,0.00,,,0.00,Wunderground v.1.15,2013-08-06 09:20:00,
2013-08-06 04:25:00,67.0,66.1,29.81,SW,229,0.0,6.0,97,0.00,,,0.00,Wunderground v.1.15,2013-08-06 09:25:00,
2013-08-06 04:31:00,67.1,66.2,29.81,SW,229,0.0,6.0,97,0.00,,,0.00,Wunderground v.1.15,2013-08-06 09:31:00,
2013-08-06 04:36:00,67.3,66.4,29.81,SW,229,0.0,6.0,97,0.00,,,0.00,Wunderground v.1.15,2013-08-06 09:36:00,
2013-08-06 04:42:00,67.5,66.6,29.81,WSW,248,2.0,6.0,97,0.00,,,0.00,Wunderground v.1.15,2013-08-06 09:42:00,
2013-08-06 04:47:00,67.8,66.9,29.81,SW,236,4.0,6.0,97,0.00,,,0.00,Wunderground v.1.15,2013-08-06 09:47:00,
2013-08-06 04:53:00,67.9,67.0,29.81,SW,227,4.0,6.0,97,0.00,,,0.00,Wunderground v.1.15,2013-08-06 09:53:00,
2013-08-06 04:58:00,67.9,67.0,29.81,WSW,240,3.0,6.0,97,0.00,,,0.00,Wunderground v.1.15,2013-08-06 09:58:00,
2013-08-06 05:08:00,68.0,67.1,29.81,WSW,255,5.0,7.0,97,0.00,,,0.00,Wunderground v.1.15,2013-08-06 10:08:00,
2013-08-06 05:13:00,68.0,67.1,29.82,WSW,241,6.0,7.0,97,0.00,,,0.00,Wunderground v.1.15,2013-08-06 10:13:00,
2013-08-06 05:19:00,67.9,67.0,29.82,SW,217,5.0,7.0,97,0.00,,,0.00,Wunderground v.1.15,2013-08-06 10:19:00,
2013-08-06 05:25:00,68.0,67.1,29.82,SW,232,4.0,7.0,97,0.00,,,0.01,Wunderground v.1.15,2013-08-06 10:25:00,
2013-08-06 05:30:00,68.0,67.1,29.82,SW,223,4.0,6.0,97,0.00,,,0.01,Wunderground v.1.15,2013-08-06 10:30:00,
2013-08-06 05:35:00,68.1,67.2,29.82,WSW,240,3.0,7.0,97,0.00,,,0.01,Wunderground v.1.15,2013-08-06 10:35:00,
2013-08-06 05:41:00,68.1,67.2,29.82,WSW,238,5.0,9.0,97,0.00,,,0.01,Wunderground v.1.15,2013-08-06 10:41:00,
2013-08-06 05:47:00,68.3,67.4,29.83,SW,235,6.0,9.0,97,0.00,,,0.01,Wunderground v.1.15,2013-08-06 10:47:00,
2013-08-06 05:52:00,68.3,67.4,29.83,WSW,251,6.0,7.0,97,0.00,,,0.01,Wunderground v.1.15,2013-08-06 10:52:00,
2013-08-06 05:58:00,68.5,67.6,29.83,West,260,6.0,8.0,97,0.00,,,0.01,Wunderground v.1.15,2013-08-06 10:58:00,
2013-08-06 06:03:00,68.6,67.7,29.84,West,263,6.0,8.0,97,0.00,,,0.01,Wunderground v.1.15,2013-08-06 11:03:00,
2013-08-06 06:09:00,68.7,67.8,29.84,West,259,6.0,8.0,97,0.00,,,0.01,Wunderground v.1.15,2013-08-06 11:09:00,
2013-08-06 06:14:00,68.8,67.9,29.85,West,271,6.0,6.0,97,0.00,,,0.01,Wunderground v.1.15,2013-08-06 11:14:00,
2013-08-06 06:20:00,69.0,68.1,29.85,West,262,6.0,7.0,97,0.00,,,0.01,Wunderground v.1.15,2013-08-06 11:20:00,
2013-08-06 06:25:00,69.1,68.2,29.85,West,260,7.0,7.0,97,0.00,,,0.01,Wunderground v.1.15,2013-08-06 11:25:00,
2013-08-06 06:31:00,69.2,68.3,29.85,West,259,6.0,6.0,97,0.00,,,0.01,Wunderground v.1.15,2013-08-06 11:31:00,
2013-08-06 06:36:00,69.3,68.4,29.85,WSW,257,5.0,6.0,97,0.00,,,0.01,Wunderground v.1.15,2013-08-06 11:36:00,
2013-08-06 06:42:00,69.5,68.6,29.85,WSW,254,5.0,6.0,97,0.00,,,0.01,Wunderground v.1.15,2013-08-06 11:42:00,
2013-08-06 06:47:00,69.6,68.7,29.85,WSW,252,5.0,6.0,97,0.00,,,0.01,Wunderground v.1.15,2013-08-06 11:47:00,
2013-08-06 06:53:00,69.7,69.1,29.85,WSW,252,4.0,6.0,98,0.00,,,0.01,Wunderground v.1.15,2013-08-06 11:53:00,
2013-08-06 06:58:00,69.9,69.3,29.86,WSW,252,5.0,10.0,98,0.00,,,0.01,Wunderground v.1.15,2013-08-06 11:58:00,
2013-08-06 07:04:00,70.0,69.4,29.86,WSW,253,6.0,7.0,98,0.00,,,0.01,Wunderground v.1.15,2013-08-06 12:04:00,
2013-08-06 07:09:00,70.1,69.2,29.86,West,263,6.0,7.0,97,0.00,,,0.01,Wunderground v.1.15,2013-08-06 12:09:00,
2013-08-06 07:15:00,70.3,69.4,29.86,West,277,6.0,8.0,97,0.00,,,0.01,Wunderground v.1.15,2013-08-06 12:15:00,
2013-08-06 07:20:00,70.4,69.8,29.87,West,273,7.0,7.0,98,0.00,,,0.01,Wunderground v.1.15,2013-08-06 12:20:00,
2013-08-06 07:26:00,70.6,70.0,29.87,WNW,286,6.0,8.0,98,0.00,,,0.01,Wunderground v.1.15,2013-08-06 12:26:00,
2013-08-06 07:32:00,70.7,70.1,29.86,West,263,6.0,7.0,98,0.00,,,0.01,Wunderground v.1.15,2013-08-06 12:32:00,
2013-08-06 07:37:00,70.8,69.9,29.87,West,271,7.0,9.0,97,0.00,,,0.01,Wunderground v.1.15,2013-08-06 12:37:00,
2013-08-06 07:42:00,70.9,70.0,29.87,West,264,6.0,7.0,97,0.00,,,0.01,Wunderground v.1.15,2013-08-06 12:42:00,
2013-08-06 07:48:00,71.1,70.5,29.86,West,263,5.0,7.0,98,0.00,,,0.01,Wunderground v.1.15,2013-08-06 12:48:00,
2013-08-06 07:54:00,71.2,70.6,29.86,WSW,258,5.0,6.0,98,0.00,,,0.01,Wunderground v.1.15,2013-08-06 12:54:00,
2013-08-06 07:59:00,71.3,70.7,29.86,WSW,258,4.0,6.0,98,0.00,,,0.01,Wunderground v.1.15,2013-08-06 12:59:00,
2013-08-06 08:05:00,71.5,70.9,29.86,WSW,258,3.0,6.0,98,0.00,,,0.01,Wunderground v.1.15,2013-08-06 13:05:00,
2013-08-06 08:10:00,71.6,71.0,29.86,WSW,258,3.0,3.0,98,0.00,,,0.01,Wunderground v.1.15,2013-08-06 13:10:00,
2013-08-06 08:16:00,71.8,71.2,29.86,WSW,258,2.0,6.0,98,0.00,,,0.01,Wunderground v.1.15,2013-08-06 13:16:00,
2013-08-06 08:21:00,71.9,71.3,29.86,WSW,258,1.0,6.0,98,0.00,,,0.01,Wunderground v.1.15,2013-08-06 13:21:00,
2013-08-06 08:26:00,72.0,71.4,29.86,WSW,258,1.0,6.0,98,0.00,,,0.01,Wunderground v.1.15,2013-08-06 13:26:00,
2013-08-06 08:32:00,72.1,71.5,29.86,WSW,258,1.0,6.0,98,0.00,,,0.01,Wunderground v.1.15,2013-08-06 13:32:00,
2013-08-06 08:38:00,72.4,71.8,29.85,WSW,258,0.0,6.0,98,0.00,,,0.01,Wunderground v.1.15,2013-08-06 13:38:00,
2013-08-06 08:43:00,72.6,72.0,29.85,WSW,258,0.0,6.0,98,0.00,,,0.01,Wunderground v.1.15,2013-08-06 13:43:00,
2013-08-06 08:49:00,72.7,72.1,29.85,WSW,258,0.0,6.0,98,0.00,,,0.01,Wunderground v.1.15,2013-08-06 13:49:00,
2013-08-06 08:54:00,72.8,71.9,29.84,WSW,258,0.0,6.0,97,0.00,,,0.01,Wunderground v.1.15,2013-08-06 13:54:00,
2013-08-06 09:00:00,72.8,71.9,29.84,East,88,1.0,6.0,97,0.00,,,0.01,Wunderground v.1.15,2013-08-06 14:00:00,
2013-08-06 09:05:00,72.9,72.0,29.85,ENE,76,3.0,6.0,97,0.00,,,0.01,Wunderground v.1.15,2013-08-06 14:05:00,
2013-08-06 09:11:00,73.4,72.5,29.84,NE,47,2.0,6.0,97,0.00,,,0.01,Wunderground v.1.15,2013-08-06 14:11:00,
2013-08-06 09:16:00,73.6,72.7,29.84,NE,47,1.0,6.0,97,0.00,,,0.01,Wunderground v.1.15,2013-08-06 14:16:00,
2013-08-06 09:22:00,73.9,73.0,29.84,NE,46,0.0,6.0,97,0.00,,,0.01,Wunderground v.1.15,2013-08-06 14:22:00,
2013-08-06 09:27:00,74.0,72.8,29.84,NE,47,0.0,6.0,96,0.00,,,0.01,Wunderground v.1.15,2013-08-06 14:27:00,
2013-08-06 09:39:00,74.1,72.6,29.84,ESE,118,0.0,6.0,95,0.00,,,0.01,Wunderground v.1.15,2013-08-06 14:39:00,
2013-08-06 09:45:00,74.2,72.7,29.84,SSE,156,1.0,6.0,95,0.00,,,0.01,Wunderground v.1.15,2013-08-06 14:45:00,
2013-08-06 09:50:00,74.2,72.4,29.84,SSW,195,1.0,1.0,94,0.00,,,0.01,Wunderground v.1.15,2013-08-06 14:50:00,
2013-08-06 09:56:00,74.6,72.4,29.84,SSW,195,0.0,6.0,93,0.00,,,0.01,Wunderground v.1.15,2013-08-06 14:56:00,
2013-08-06 10:02:00,74.7,72.5,29.84,SSW,195,0.0,6.0,93,0.00,,,0.01,Wunderground v.1.15,2013-08-06 15:02:00,
2013-08-06 10:07:00,74.9,72.4,29.85,SSW,207,0.0,6.0,92,0.00,,,0.01,Wunderground v.1.15,2013-08-06 15:07:00,
2013-08-06 10:13:00,74.9,72.4,29.85,SW,222,1.0,6.0,92,0.00,,,0.01,Wunderground v.1.15,2013-08-06 15:13:00,
2013-08-06 10:18:00,74.9,72.4,29.85,SW,222,1.0,6.0,92,0.00,,,0.01,Wunderground v.1.15,2013-08-06 15:18:00,
2013-08-06 10:24:00,75.1,72.6,29.85,SW,222,0.0,6.0,92,0.00,,,0.01,Wunderground v.1.15,2013-08-06 15:24:00,
2013-08-06 10:29:00,75.1,72.3,29.85,SW,222,0.0,6.0,91,0.00,,,0.01,Wunderground v.1.15,2013-08-06 15:29:00,
2013-08-06 10:35:00,75.3,72.2,29.85,SW,222,0.0,6.0,90,0.00,,,0.01,Wunderground v.1.15,2013-08-06 15:35:00,
2013-08-06 10:40:00,75.5,72.4,29.85,SW,222,0.0,6.0,90,0.00,,,0.01,Wunderground v.1.15,2013-08-06 15:40:00,
2013-08-06 10:46:00,75.8,72.3,29.85,SW,222,0.0,6.0,89,0.00,,,0.01,Wunderground v.1.15,2013-08-06 15:46:00,
2013-08-06 10:51:00,76.0,72.2,29.85,SW,222,0.0,6.0,88,0.00,,,0.01,Wunderground v.1.15,2013-08-06 15:51:00,
2013-08-06 10:57:00,76.3,72.5,29.85,SW,222,0.0,6.0,88,0.00,,,0.01,Wunderground v.1.15,2013-08-06 15:57:00,
2013-08-06 11:02:00,76.6,72.4,29.85,SW,222,0.0,6.0,87,0.00,,,0.01,Wunderground v.1.15,2013-08-06 16:02:00,
2013-08-06 11:08:00,77.2,72.3,29.84,SW,222,0.0,6.0,85,0.00,,,0.01,Wunderground v.1.15,2013-08-06 16:08:00,
2013-08-06 11:14:00,78.0,73.1,29.85,SW,222,0.0,6.0,85,0.00,,,0.01,Wunderground v.1.15,2013-08-06 16:14:00,
2013-08-06 11:20:00,78.5,72.5,29.85,ESE,107,0.0,6.0,82,0.00,,,0.01,Wunderground v.1.15,2013-08-06 16:20:00,
2013-08-06 11:26:00,78.4,72.8,29.84,SSE,150,1.0,6.0,83,0.00,,,0.01,Wunderground v.1.15,2013-08-06 16:26:00,
2013-08-06 11:31:00,78.5,72.9,29.84,SSE,149,1.0,6.0,83,0.00,,,0.01,Wunderground v.1.15,2013-08-06 16:31:00,
2013-08-06 11:37:00,79.2,73.2,29.84,ESE,112,0.0,6.0,82,0.00,,,0.01,Wunderground v.1.15,2013-08-06 16:37:00,
2013-08-06 11:42:00,79.4,73.4,29.83,SW,220,1.0,6.0,82,0.00,,,0.01,Wunderground v.1.15,2013-08-06 16:42:00,
2013-08-06 11:48:00,79.5,73.5,29.83,SW,223,1.0,6.0,82,0.00,,,0.01,Wunderground v.1.15,2013-08-06 16:48:00,
2013-08-06 11:53:00,79.6,73.3,29.83,WSW,237,2.0,6.0,81,0.00,,,0.01,Wunderground v.1.15,2013-08-06 16:53:00,
2013-08-06 11:59:00,80.2,74.2,29.83,SSW,213,2.0,6.0,82,0.00,,,0.01,Wunderground v.1.15,2013-08-06 16:59:00,
2013-08-06 12:04:00,80.8,73.7,29.83,SSW,193,2.0,6.0,79,0.00,,,0.01,Wunderground v.1.15,2013-08-06 17:04:00,
2013-08-06 12:10:00,81.3,73.8,29.83,SE,128,2.0,2.0,78,0.00,,,0.01,Wunderground v.1.15,2013-08-06 17:10:00,
2013-08-06 12:16:00,81.5,74.0,29.84,SW,216,1.0,6.0,78,0.00,,,0.01,Wunderground v.1.15,2013-08-06 17:16:00,
2013-08-06 12:21:00,81.5,74.4,29.84,SW,216,1.0,2.0,79,0.00,,,0.01,Wunderground v.1.15,2013-08-06 17:21:00,
2013-08-06 12:26:00,81.8,74.3,29.84,WSW,246,1.0,6.0,78,0.00,,,0.01,Wunderground v.1.15,2013-08-06 17:26:00,
2013-08-06 12:32:00,81.6,73.3,29.84,West,266,3.0,8.0,76,0.00,,,0.01,Wunderground v.1.15,2013-08-06 17:32:00,
2013-08-06 12:37:00,81.7,73.8,29.84,SW,220,3.0,8.0,77,0.00,,,0.01,Wunderground v.1.15,2013-08-06 17:37:00,
2013-08-06 12:42:00,81.9,74.7,29.84,WNW,287,1.0,6.0,79,0.00,,,0.01,Wunderground v.1.15,2013-08-06 17:42:00,
2013-08-06 12:48:00,81.2,73.7,29.84,WNW,287,2.0,6.0,78,0.00,,,0.01,Wunderground v.1.15,2013-08-06 17:48:00,
2013-08-06 12:53:00,80.9,73.4,29.84,WNW,292,3.0,6.0,78,0.00,,,0.01,Wunderground v.1.15,2013-08-06 17:53:00,
2013-08-06 12:58:00,81.6,75.2,29.84,WNW,292,2.0,6.0,81,0.00,,,0.01,Wunderground v.1.15,2013-08-06 17:58:00,
2013-08-06 13:04:00,81.4,73.9,29.84,West,273,3.0,6.0,78,0.00,,,0.01,Wunderground v.1.15,2013-08-06 18:04:00,
2013-08-06 13:10:00,81.3,73.4,29.84,West,273,2.0,2.0,77,0.00,,,0.01,Wunderground v.1.15,2013-08-06 18:10:00,
2013-08-06 13:15:00,81.9,74.7,29.84,West,264,1.0,6.0,79,0.00,,,0.01,Wunderground v.1.15,2013-08-06 18:15:00,
2013-08-06 13:20:00,82.5,74.9,29.84,WNW,298,1.0,7.0,78,0.00,,,0.01,Wunderground v.1.15,2013-08-06 18:20:00,
2013-08-06 13:26:00,82.2,75.0,29.84,WNW,284,5.0,7.0,79,0.00,,,0.01,Wunderground v.1.15,2013-08-06 18:26:00,
2013-08-06 13:32:00,82.2,75.0,29.84,WNW,287,5.0,7.0,79,0.00,,,0.01,Wunderground v.1.15,2013-08-06 18:32:00,
2013-08-06 13:37:00,81.8,74.6,29.83,WNW,288,5.0,9.0,79,0.00,,,0.01,Wunderground v.1.15,2013-08-06 18:37:00,
2013-08-06 13:43:00,81.9,74.0,29.83,WSW,243,5.0,7.0,77,0.00,,,0.01,Wunderground v.1.15,2013-08-06 18:43:00,
2013-08-06 13:48:00,81.2,74.1,29.82,West,264,5.0,11.0,79,0.00,,,0.01,Wunderground v.1.15,2013-08-06 18:48:00,
2013-08-06 13:54:00,80.7,73.6,29.82,West,259,4.0,6.0,79,0.00,,,0.01,Wunderground v.1.15,2013-08-06 18:54:00,
2013-08-06 13:59:00,81.0,73.9,29.82,West,265,4.0,7.0,79,0.00,,,0.01,Wunderground v.1.15,2013-08-06 18:59:00,
2013-08-06 14:05:00,81.6,74.1,29.82,West,264,6.0,7.0,78,0.00,,,0.01,Wunderground v.1.15,2013-08-06 19:05:00,
2013-08-06 14:11:00,82.2,74.7,29.81,West,259,6.0,7.0,78,0.00,,,0.01,Wunderground v.1.15,2013-08-06 19:11:00,
2013-08-06 14:17:00,82.7,74.8,29.81,SW,230,6.0,10.0,77,0.00,,,0.01,Wunderground v.1.15,2013-08-06 19:17:00,
2013-08-06 14:22:00,82.8,74.5,29.82,WSW,240,6.0,7.0,76,0.00,,,0.01,Wunderground v.1.15,2013-08-06 19:22:00,
2013-08-06 14:28:00,83.0,74.6,29.81,WSW,254,6.0,8.0,76,0.00,,,0.01,Wunderground v.1.15,2013-08-06 19:28:00,
2013-08-06 14:34:00,83.5,73.5,29.81,SW,229,5.0,7.0,72,0.00,,,0.01,Wunderground v.1.15,2013-08-06 19:34:00,
2013-08-06 14:39:00,83.3,73.7,29.81,WSW,242,4.0,8.0,73,0.00,,,0.01,Wunderground v.1.15,2013-08-06 19:39:00,
2013-08-06 14:45:00,84.2,75.4,29.81,WSW,249,4.0,6.0,75,0.00,,,0.01,Wunderground v.1.15,2013-08-06 19:45:00,
2013-08-06 14:50:00,84.5,74.5,29.81,WSW,248,4.0,6.0,72,0.00,,,0.01,Wunderground v.1.15,2013-08-06 19:50:00,
2013-08-06 14:56:00,84.2,72.9,29.81,WSW,244,3.0,7.0,69,0.00,,,0.01,Wunderground v.1.15,2013-08-06 19:56:00,
2013-08-06 15:01:00,83.7,73.7,29.81,WSW,244,2.0,6.0,72,0.00,,,0.01,Wunderground v.1.15,2013-08-06 20:01:00,
2013-08-06 15:07:00,84.5,74.1,29.80,West,270,2.0,6.0,71,0.00,,,0.01,Wunderground v.1.15,2013-08-06 20:07:00,
2013-08-06 15:12:00,84.7,75.1,29.80,SW,216,3.0,6.0,73,0.00,,,0.01,Wunderground v.1.15,2013-08-06 20:12:00,
2013-08-06 15:18:00,85.4,74.1,29.80,West,275,2.0,6.0,69,0.00,,,0.01,Wunderground v.1.15,2013-08-06 20:18:00,
2013-08-06 15:23:00,85.0,74.5,29.80,SW,236,4.0,8.0,71,0.00,,,0.01,Wunderground v.1.15,2013-08-06 20:23:00,
2013-08-06 15:29:00,84.1,73.7,29.80,WSW,244,6.0,8.0,71,0.00,,,0.01,Wunderground v.1.15,2013-08-06 20:29:00,
2013-08-06 15:34:00,84.5,74.1,29.79,West,259,4.0,9.0,71,0.00,,,0.01,Wunderground v.1.15,2013-08-06 20:34:00,
2013-08-06 15:37:00,84.4,74.0,29.80,WSW,237,5.0,9.0,71,0.00,,,0.01,Wunderground v.1.15,2013-08-06 20:37:00,
2013-08-06 15:42:00,84.4,74.4,29.79,West,259,6.0,7.0,72,0.00,,,0.01,Wunderground v.1.15,2013-08-06 20:42:00,
2013-08-06 15:47:00,84.7,74.7,29.79,WNW,292,5.0,7.0,72,0.00,,,0.01,Wunderground v.1.15,2013-08-06 20:47:00,
2013-08-06 15:53:00,84.3,74.7,29.79,WNW,292,6.0,9.0,73,0.00,,,0.01,Wunderground v.1.15,2013-08-06 20:53:00,
2013-08-06 16:00:00,83.8,74.2,29.79,West,259,7.0,7.0,73,0.00,,,0.01,Wunderground v.1.15,2013-08-06 21:00:00,
2013-08-06 16:06:00,83.6,74.4,29.79,West,279,5.0,7.0,74,0.00,,,0.01,Wunderground v.1.15,2013-08-06 21:06:00,
2013-08-06 16:15:00,83.4,75.0,29.79,SW,229,6.0,6.0,76,0.00,,,0.01,Wunderground v.1.15,2013-08-06 21:15:00,
2013-08-06 16:25:00,83.2,74.8,29.79,WNW,283,6.0,7.0,76,0.00,,,0.01,Wunderground v.1.15,2013-08-06 21:25:00,
2013-08-06 16:30:00,83.6,74.8,29.79,West,260,6.0,10.0,75,0.00,,,0.01,Wunderground v.1.15,2013-08-06 21:30:00,
2013-08-06 16:40:00,83.7,75.3,29.79,West,269,6.0,8.0,76,0.00,,,0.01,Wunderground v.1.15,2013-08-06 21:40:00,
2013-08-06 16:46:00,83.4,74.2,29.79,West,273,6.0,7.0,74,0.00,,,0.01,Wunderground v.1.15,2013-08-06 21:46:00,
2013-08-06 16:52:00,83.7,74.9,29.79,West,270,6.0,6.0,75,0.00,,,0.01,Wunderground v.1.15,2013-08-06 21:52:00,
2013-08-06 16:57:00,84.2,75.4,29.79,West,262,5.0,6.0,75,0.00,,,0.01,Wunderground v.1.15,2013-08-06 21:57:00,
2013-08-06 17:03:00,84.3,74.7,29.79,WSW,246,5.0,8.0,73,0.00,,,0.01,Wunderground v.1.15,2013-08-06 22:03:00,
2013-08-06 17:08:00,84.3,74.7,29.79,WSW,240,5.0,8.0,73,0.00,,,0.01,Wunderground v.1.15,2013-08-06 22:08:00,
2013-08-06 17:14:00,84.4,75.6,29.79,WSW,254,5.0,8.0,75,0.00,,,0.01,Wunderground v.1.15,2013-08-06 22:14:00,
2013-08-06 17:20:00,84.3,74.3,29.80,WSW,248,5.0,5.0,72,0.00,,,0.01,Wunderground v.1.15,2013-08-06 22:20:00,
2013-08-06 17:25:00,84.5,75.3,29.80,WSW,238,4.0,7.0,74,0.00,,,0.01,Wunderground v.1.15,2013-08-06 22:25:00,
2013-08-06 17:31:00,84.5,75.3,29.80,WSW,253,4.0,6.0,74,0.00,,,0.01,Wunderground v.1.15,2013-08-06 22:31:00,
2013-08-06 17:36:00,84.7,75.5,29.80,WSW,248,4.0,6.0,74,0.00,,,0.01,Wunderground v.1.15,2013-08-06 22:36:00,
2013-08-06 17:42:00,84.6,75.8,29.80,WSW,238,3.0,6.0,75,0.00,,,0.01,Wunderground v.1.15,2013-08-06 22:42:00,
2013-08-06 17:47:00,84.3,74.3,29.80,WSW,242,4.0,6.0,72,0.00,,,0.01,Wunderground v.1.15,2013-08-06 22:47:00,
2013-08-06 17:53:00,84.2,75.4,29.80,WSW,244,3.0,6.0,75,0.00,,,0.01,Wunderground v.1.15,2013-08-06 22:53:00,
2013-08-06 17:58:00,84.5,75.3,29.80,WSW,242,2.0,6.0,74,0.00,,,0.01,Wunderground v.1.15,2013-08-06 22:58:00,
2013-08-06 18:04:00,84.4,74.8,29.80,West,267,2.0,6.0,73,0.00,,,0.01,Wunderground v.1.15,2013-08-06 23:04:00,
2013-08-06 18:10:00,84.4,75.2,29.80,West,259,3.0,3.0,74,0.00,,,0.01,Wunderground v.1.15,2013-08-06 23:10:00,
2013-08-06 18:15:00,84.5,74.9,29.80,WSW,254,2.0,6.0,73,0.00,,,0.01,Wunderground v.1.15,2013-08-06 23:15:00,
2013-08-06 18:20:00,84.5,75.3,29.80,WSW,254,1.0,1.0,74,0.00,,,0.01,Wunderground v.1.15,2013-08-06 23:20:00,
2013-08-06 18:26:00,84.7,75.1,29.80,WSW,254,0.0,6.0,73,0.00,,,0.01,Wunderground v.1.15,2013-08-06 23:26:00,
2013-08-06 18:32:00,84.6,75.4,29.80,WSW,254,1.0,6.0,74,0.00,,,0.01,Wunderground v.1.15,2013-08-06 23:32:00,
2013-08-06 18:37:00,84.4,75.2,29.80,SSW,213,1.0,6.0,74,0.00,,,0.01,Wunderground v.1.15,2013-08-06 23:37:00,
2013-08-06 18:43:00,84.4,75.2,29.80,SW,222,2.0,6.0,74,0.00,,,0.01,Wunderground v.1.15,2013-08-06 23:43:00,
2013-08-06 18:51:00,84.6,75.0,29.79,SW,228,0.0,6.0,73,0.00,,,0.01,Wunderground v.1.15,2013-08-06 23:51:00,
2013-08-06 18:56:00,84.2,75.0,29.79,SW,230,2.0,6.0,74,0.00,,,0.01,Wunderground v.1.15,2013-08-06 23:56:00,
2013-08-06 19:02:00,83.8,75.0,29.79,SW,230,2.0,6.0,75,0.00,,,0.01,Wunderground v.1.15,2013-08-07 00:02:00,
2013-08-06 19:08:00,83.6,75.2,29.79,SW,235,1.0,6.0,76,0.00,,,0.01,Wunderground v.1.15,2013-08-07 00:08:00,
2013-08-06 19:14:00,83.4,75.0,29.78,SW,234,1.0,6.0,76,0.00,,,0.01,Wunderground v.1.15,2013-08-07 00:14:00,
2013-08-06 19:19:00,83.2,75.2,29.78,SW,234,1.0,6.0,77,0.00,,,0.01,Wunderground v.1.15,2013-08-07 00:19:00,
2013-08-06 19:25:00,82.9,74.9,29.78,SW,234,1.0,6.0,77,0.00,,,0.01,Wunderground v.1.15,2013-08-07 00:25:00,
2013-08-06 19:30:00,82.7,74.8,29.78,SW,234,1.0,1.0,77,0.00,,,0.01,Wunderground v.1.15,2013-08-07 00:30:00,
2013-08-06 19:35:00,82.4,74.8,29.79,SW,234,0.0,6.0,78,0.00,,,0.01,Wunderground v.1.15,2013-08-07 00:35:00,
2013-08-06 19:41:00,82.1,74.6,29.79,SW,234,0.0,6.0,78,0.00,,,0.01,Wunderground v.1.15,2013-08-07 00:41:00,
2013-08-06 19:52:00,81.5,74.4,29.79,SW,234,0.0,6.0,79,0.00,,,0.01,Wunderground v.1.15,2013-08-07 00:52:00,
2013-08-06 19:58:00,81.2,74.4,29.79,SW,234,0.0,6.0,80,0.00,,,0.01,Wunderground v.1.15,2013-08-07 00:58:00,
2013-08-06 20:03:00,80.7,74.3,29.79,SW,234,0.0,6.0,81,0.00,,,0.01,Wunderground v.1.15,2013-08-07 01:03:00,
2013-08-06 20:09:00,80.4,74.0,29.79,SW,234,0.0,6.0,81,0.00,,,0.01,Wunderground v.1.15,2013-08-07 01:09:00,
2013-08-06 20:14:00,80.1,74.1,29.79,SW,234,0.0,6.0,82,0.00,,,0.01,Wunderground v.1.15,2013-08-07 01:14:00,
2013-08-06 20:19:00,79.8,73.8,29.79,SW,234,0.0,6.0,82,0.00,,,0.01,Wunderground v.1.15,2013-08-07 01:19:00,
2013-08-06 20:25:00,79.4,73.8,29.79,SW,234,0.0,6.0,83,0.00,,,0.01,Wunderground v.1.15,2013-08-07 01:25:00,
2013-08-06 20:31:00,79.0,73.7,29.79,SW,234,0.0,6.0,84,0.00,,,0.01,Wunderground v.1.15,2013-08-07 01:31:00,
2013-08-06 20:36:00,78.7,73.5,29.79,SW,234,0.0,6.0,84,0.00,,,0.01,Wunderground v.1.15,2013-08-07 01:36:00,
2013-08-06 20:43:00,78.2,73.3,29.80,SW,234,0.0,6.0,85,0.00,,,0.01,Wunderground v.1.15,2013-08-07 01:43:00,
2013-08-06 20:49:00,77.7,73.2,29.80,SW,234,0.0,6.0,86,0.00,,,0.01,Wunderground v.1.15,2013-08-07 01:49:00,
2013-08-06 20:55:00,77.3,72.8,29.81,SW,234,0.0,6.0,86,0.00,,,0.01,Wunderground v.1.15,2013-08-07 01:55:00,
2013-08-06 21:01:00,77.1,72.9,29.81,SW,234,0.0,6.0,87,0.00,,,0.01,Wunderground v.1.15,2013-08-07 02:01:00,
2013-08-06 21:06:00,76.8,72.6,29.81,SW,234,0.0,6.0,87,0.00,,,0.01,Wunderground v.1.15,2013-08-07 02:06:00,
2013-08-06 21:12:00,76.6,72.8,29.81,SW,234,0.0,6.0,88,0.00,,,0.01,Wunderground v.1.15,2013-08-07 02:12:00,
2013-08-06 21:17:00,76.3,72.5,29.82,SW,234,0.0,6.0,88,0.00,,,0.01,Wunderground v.1.15,2013-08-07 02:17:00,
2013-08-06 21:23:00,76.1,72.6,29.82,SW,234,0.0,6.0,89,0.00,,,0.01,Wunderground v.1.15,2013-08-07 02:23:00,
2013-08-06 21:29:00,76.0,72.5,29.83,SW,234,0.0,6.0,89,0.00,,,0.01,Wunderground v.1.15,2013-08-07 02:29:00,
2013-08-06 21:35:00,75.8,72.3,29.83,SW,234,0.0,6.0,89,0.00,,,0.01,Wunderground v.1.15,2013-08-07 02:35:00,
2013-08-06 21:40:00,75.7,72.6,29.83,SW,234,0.0,6.0,90,0.00,,,0.01,Wunderground v.1.15,2013-08-07 02:40:00,
2013-08-06 21:46:00,75.4,72.3,29.83,SW,234,0.0,6.0,90,0.00,,,0.01,Wunderground v.1.15,2013-08-07 02:46:00,
2013-08-06 21:54:00,75.0,71.9,29.83,SW,234,0.0,6.0,90,0.00,,,0.01,Wunderground v.1.15,2013-08-07 02:54:00,
2013-08-06 22:00:00,74.4,71.3,29.83,SW,234,0.0,6.0,90,0.00,,,0.01,Wunderground v.1.15,2013-08-07 03:00:00,
2013-08-06 22:06:00,74.0,71.2,29.83,SW,234,0.0,6.0,91,0.00,,,0.01,Wunderground v.1.15,2013-08-07 03:06:00,
2013-08-06 22:12:00,73.9,71.4,29.83,SW,234,0.0,6.0,92,0.00,,,0.01,Wunderground v.1.15,2013-08-07 03:12:00,
2013-08-06 22:18:00,74.0,71.5,29.83,SW,234,0.0,6.0,92,0.00,,,0.01,Wunderground v.1.15,2013-08-07 03:18:00,
2013-08-06 22:23:00,74.0,71.5,29.83,SW,234,0.0,6.0,92,0.00,,,0.01,Wunderground v.1.15,2013-08-07 03:23:00,
2013-08-06 22:29:00,73.8,71.3,29.82,SW,234,0.0,6.0,92,0.00,,,0.01,Wunderground v.1.15,2013-08-07 03:29:00,
2013-08-06 22:34:00,73.6,71.1,29.83,SW,234,0.0,6.0,92,0.00,,,0.01,Wunderground v.1.15,2013-08-07 03:34:00,
2013-08-06 22:40:00,73.5,71.4,29.82,SW,234,0.0,6.0,93,0.00,,,0.01,Wunderground v.1.15,2013-08-07 03:40:00,
2013-08-06 22:45:00,73.5,71.4,29.83,SW,234,0.0,6.0,93,0.00,,,0.01,Wunderground v.1.15,2013-08-07 03:45:00,
2013-08-06 22:51:00,73.5,71.4,29.83,SW,234,0.0,6.0,93,0.00,,,0.01,Wunderground v.1.15,2013-08-07 03:51:00,
2013-08-06 22:56:00,73.5,71.4,29.82,SW,234,0.0,6.0,93,0.00,,,0.01,Wunderground v.1.15,2013-08-07 03:56:00,
2013-08-06 23:01:00,73.4,71.3,29.82,SW,234,0.0,6.0,93,0.00,,,0.01,Wunderground v.1.15,2013-08-07 04:01:00,
2013-08-06 23:02:00,73.4,71.3,29.83,SW,234,0.0,6.0,93,0.00,,,0.01,Wunderground v.1.15,2013-08-07 04:02:00,
2013-08-06 23:03:00,73.4,71.3,29.83,SW,234,0.0,6.0,93,0.00,,,0.01,Wunderground v.1.15,2013-08-07 04:03:00,
2013-08-06 23:06:00,73.4,71.3,29.83,SW,234,0.0,6.0,93,0.00,,,0.01,Wunderground v.1.15,2013-08-07 04:06:00,
2013-08-06 23:11:00,73.5,71.4,29.83,SW,234,0.0,6.0,93,0.00,,,0.01,Wunderground v.1.15,2013-08-07 04:11:00,
2013-08-06 23:14:00,73.5,71.4,29.83,SW,234,0.0,6.0,93,0.00,,,0.01,Wunderground v.1.15,2013-08-07 04:14:00,
2013-08-06 23:20:00,73.6,71.4,29.83,SW,234,0.0,6.0,93,0.00,,,0.01,Wunderground v.1.15,2013-08-07 04:20:00,
2013-08-06 23:25:00,73.8,71.6,29.83,SW,234,0.0,6.0,93,0.00,,,0.01,Wunderground v.1.15,2013-08-07 04:25:00,
2013-08-06 23:31:00,73.8,71.6,29.83,SW,234,0.0,6.0,93,0.00,,,0.01,Wunderground v.1.15,2013-08-07 04:31:00,
2013-08-06 23:36:00,73.8,71.6,29.83,SW,234,0.0,6.0,93,0.00,,,0.01,Wunderground v.1.15,2013-08-07 04:36:00,
2013-08-06 23:42:00,73.7,71.5,29.83,SW,234,0.0,6.0,93,0.00,,,0.01,Wunderground v.1.15,2013-08-07 04:42:00,
2013-08-06 23:47:00,73.5,71.0,29.83,SW,234,0.0,6.0,92,0.00,,,0.01,Wunderground v.1.15,2013-08-07 04:47:00,
2013-08-06 23:53:00,73.1,70.6,29.83,SW,234,0.0,6.0,92,0.00,,,0.01,Wunderground v.1.15,2013-08-07 04:53:00,
2013-08-06 23:58:00,72.9,70.8,29.83,SW,234,0.0,6.0,93,0.00,,,0.01,Wunderground v.1.15,2013-08-07 04:58:00,